Location: Montreal
(45.5000°N, 73.5833°W)
Time: 11:17:43
(UTC-05:00)

N. Korean satellite - Pass Details

Date: 16 October 2017
Orbit: 461 x 513 km, 97.2° (Epoch: 11 December)

Event Time Altitude Azimuth Distance (km) Brightness Sun altitude
Rises 18:39:00 0° 159° (SSE) 2,535 10.1 -6.4°
Reaches altitude 10° 18:41:05 10° 156° (SSE) 1,651 9.1 -6.8°
Maximum altitude 18:44:35 62° 75° (ENE) 540 6.5 -7.4°
Drops below altitude 10° 18:48:04 10° 354° (N) 1,640 9.3 -8.0°
Sets 18:50:07 0° 351° (N) 2,515 10.3 -8.4°
